Time,TemperatureF,DewpointF,PressureIn,WindDirection,WindDirectionDegrees,WindSpeedMPH,WindSpeedGustMPH,Humidity,HourlyPrecipIn,Conditions,Clouds,dailyrainin,SoftwareType,DateUTC
2013-06-26 00:00:00,80.1,71.9,29.74,SSE,158,7.0,13.0,76,0.00,,---,0.00,VWS V14.00,2013-06-26 05:00:00,
2013-06-26 00:05:00,80.0,71.4,29.74,SSE,158,9.0,14.0,75,0.00,,---,0.00,VWS V14.00,2013-06-26 05:05:00,
2013-06-26 00:10:00,80.0,71.4,29.74,SSE,158,9.0,13.0,75,0.00,,---,0.00,VWS V14.00,2013-06-26 05:10:00,
2013-06-26 00:15:00,79.9,71.3,29.74,SSE,158,9.0,13.0,75,0.00,,---,0.00,VWS V14.00,2013-06-26 05:15:00,
2013-06-26 00:20:00,79.9,71.3,29.74,SSE,158,8.0,14.0,75,0.00,,---,0.00,VWS V14.00,2013-06-26 05:20:00,
2013-06-26 00:25:00,79.9,71.3,29.74,SE,135,7.0,12.0,75,0.00,,---,0.00,VWS V14.00,2013-06-26 05:25:00,
2013-06-26 00:30:00,79.8,71.2,29.74,SE,135,7.0,12.0,75,0.00,,---,0.00,VWS V14.00,2013-06-26 05:30:00,
2013-06-26 00:35:00,79.8,71.2,29.74,SSE,158,8.0,12.0,75,0.00,,---,0.00,VWS V14.00,2013-06-26 05:35:00,
2013-06-26 00:40:00,79.8,71.2,29.74,SSE,158,7.0,13.0,75,0.00,,---,0.00,VWS V14.00,2013-06-26 05:40:00,
2013-06-26 00:45:00,79.7,70.7,29.74,SSE,158,8.0,14.0,74,0.00,,---,0.00,VWS V14.00,2013-06-26 05:45:00,
2013-06-26 00:50:00,79.7,70.7,29.74,SSE,158,9.0,14.0,74,0.00,,---,0.00,VWS V14.00,2013-06-26 05:50:00,
2013-06-26 00:55:00,79.7,70.7,29.74,SSE,158,8.0,13.0,74,0.00,,---,0.00,VWS V14.00,2013-06-26 05:55:00,
2013-06-26 01:00:00,79.7,70.7,29.74,SSE,158,9.0,14.0,74,0.00,,---,0.00,VWS V14.00,2013-06-26 06:00:00,
2013-06-26 01:05:00,79.7,70.7,29.74,SSE,158,8.0,14.0,74,0.00,,---,0.00,VWS V14.00,2013-06-26 06:05:00,
2013-06-26 01:10:00,79.7,70.7,29.74,SSE,158,8.0,14.0,74,0.00,,---,0.00,VWS V14.00,2013-06-26 06:10:00,
2013-06-26 01:15:00,79.6,70.6,29.74,SSE,158,8.0,15.0,74,0.00,,---,0.00,VWS V14.00,2013-06-26 06:15:00,
2013-06-26 01:20:00,79.6,70.6,29.74,SSE,158,9.0,14.0,74,0.00,,---,0.00,VWS V14.00,2013-06-26 06:20:00,
2013-06-26 01:25:00,79.6,70.2,29.73,SSE,158,9.0,15.0,73,0.00,,---,0.00,VWS V14.00,2013-06-26 06:25:00,
2013-06-26 01:30:00,79.6,70.2,29.73,SSE,158,9.0,16.0,73,0.00,,---,0.00,VWS V14.00,2013-06-26 06:30:00,
2013-06-26 01:35:00,79.6,70.2,29.74,SSE,158,8.0,15.0,73,0.00,,---,0.00,VWS V14.00,2013-06-26 06:35:00,
2013-06-26 01:40:00,79.6,70.2,29.73,SSE,158,8.0,14.0,73,0.00,,---,0.00,VWS V14.00,2013-06-26 06:40:00,
2013-06-26 01:45:00,79.6,70.2,29.74,SSE,158,9.0,15.0,73,0.00,,---,0.00,VWS V14.00,2013-06-26 06:45:00,
2013-06-26 01:50:00,79.5,70.1,29.73,South,180,8.0,15.0,73,0.00,,---,0.00,VWS V14.00,2013-06-26 06:50:00,
2013-06-26 01:55:00,79.4,70.0,29.74,SSE,158,7.0,12.0,73,0.00,,---,0.00,VWS V14.00,2013-06-26 06:55:00,
2013-06-26 02:00:00,79.3,70.3,29.73,South,180,9.0,14.0,74,0.00,,---,0.00,VWS V14.00,2013-06-26 07:00:00,
2013-06-26 02:05:00,79.1,70.1,29.74,South,180,8.0,13.0,74,0.00,,---,0.00,VWS V14.00,2013-06-26 07:05:00,
2013-06-26 02:10:00,79.0,70.0,29.74,South,180,8.0,11.0,74,0.00,,---,0.00,VWS V14.00,2013-06-26 07:10:00,
2013-06-26 02:15:00,78.9,69.9,29.74,South,180,7.0,13.0,74,0.00,,---,0.00,VWS V14.00,2013-06-26 07:15:00,
2013-06-26 02:20:00,78.8,69.8,29.74,South,180,7.0,11.0,74,0.00,,---,0.00,VWS V14.00,2013-06-26 07:20:00,
2013-06-26 02:25:00,78.7,69.7,29.74,South,180,6.0,10.0,74,0.00,,---,0.00,VWS V14.00,2013-06-26 07:25:00,
2013-06-26 02:30:00,78.7,69.7,29.74,South,180,7.0,11.0,74,0.00,,---,0.00,VWS V14.00,2013-06-26 07:30:00,
2013-06-26 02:35:00,78.7,69.7,29.74,South,180,5.0,11.0,74,0.00,,---,0.00,VWS V14.00,2013-06-26 07:35:00,
2013-06-26 02:40:00,78.7,69.7,29.74,South,180,5.0,7.0,74,0.00,,---,0.00,VWS V14.00,2013-06-26 07:40:00,
2013-06-26 02:45:00,78.6,69.6,29.74,South,180,4.0,7.0,74,0.00,,---,0.00,VWS V14.00,2013-06-26 07:45:00,
2013-06-26 02:50:00,78.5,69.5,29.74,South,180,4.0,7.0,74,0.00,,---,0.00,VWS V14.00,2013-06-26 07:50:00,
2013-06-26 02:55:00,78.4,69.4,29.74,South,180,4.0,9.0,74,0.00,,---,0.00,VWS V14.00,2013-06-26 07:55:00,
2013-06-26 03:00:00,78.3,69.7,29.74,South,180,4.0,6.0,75,0.00,,---,0.00,VWS V14.00,2013-06-26 08:00:00,
2013-06-26 03:05:00,78.2,69.6,29.74,South,180,4.0,7.0,75,0.00,,---,0.00,VWS V14.00,2013-06-26 08:05:00,
2013-06-26 03:10:00,78.1,69.5,29.74,South,180,4.0,7.0,75,0.00,,---,0.00,VWS V14.00,2013-06-26 08:10:00,
2013-06-26 03:15:00,78.0,69.4,29.74,South,180,5.0,7.0,75,0.00,,---,0.00,VWS V14.00,2013-06-26 08:15:00,
2013-06-26 03:25:00,78.0,69.4,29.73,South,180,6.0,10.0,75,0.00,,---,0.00,VWS V14.00,2013-06-26 08:25:00,
2013-06-26 03:30:00,78.0,69.4,29.73,SSE,158,6.0,11.0,75,0.00,,---,0.00,VWS V14.00,2013-06-26 08:30:00,
2013-06-26 03:35:00,77.9,69.3,29.74,SSE,158,6.0,11.0,75,0.00,,---,0.00,VWS V14.00,2013-06-26 08:35:00,
2013-06-26 03:40:00,77.9,69.3,29.73,South,180,6.0,10.0,75,0.00,,---,0.00,VWS V14.00,2013-06-26 08:40:00,
2013-06-26 03:45:00,77.8,69.2,29.73,South,180,6.0,11.0,75,0.00,,---,0.00,VWS V14.00,2013-06-26 08:45:00,
2013-06-26 03:50:00,77.6,69.4,29.73,South,180,6.0,10.0,76,0.00,,---,0.00,VWS V14.00,2013-06-26 08:50:00,
2013-06-26 03:55:00,77.5,69.3,29.73,South,180,7.0,12.0,76,0.00,,---,0.00,VWS V14.00,2013-06-26 08:55:00,
2013-06-26 04:00:00,77.5,69.0,29.73,South,180,8.0,12.0,75,0.00,,---,0.00,VWS V14.00,2013-06-26 09:00:00,
2013-06-26 04:05:00,77.6,69.1,29.73,South,180,8.0,11.0,75,0.00,,---,0.00,VWS V14.00,2013-06-26 09:05:00,
2013-06-26 04:10:00,77.6,69.1,29.73,South,180,8.0,13.0,75,0.00,,---,0.00,VWS V14.00,2013-06-26 09:10:00,
2013-06-26 04:15:00,77.6,69.1,29.73,SSE,158,7.0,11.0,75,0.00,,---,0.00,VWS V14.00,2013-06-26 09:15:00,
2013-06-26 04:20:00,77.6,69.1,29.73,South,180,8.0,12.0,75,0.00,,---,0.00,VWS V14.00,2013-06-26 09:20:00,
2013-06-26 04:30:00,77.6,69.1,29.73,South,180,7.0,12.0,75,0.00,,---,0.00,VWS V14.00,2013-06-26 09:30:00,
2013-06-26 04:35:00,77.6,68.7,29.73,South,180,8.0,12.0,74,0.00,,---,0.00,VWS V14.00,2013-06-26 09:35:00,
2013-06-26 04:40:00,77.7,68.8,29.73,South,180,8.0,14.0,74,0.00,,---,0.00,VWS V14.00,2013-06-26 09:40:00,
2013-06-26 04:45:00,77.8,68.9,29.73,South,180,8.0,12.0,74,0.00,,---,0.00,VWS V14.00,2013-06-26 09:45:00,
2013-06-26 04:50:00,77.8,68.5,29.73,South,180,7.0,12.0,73,0.00,,---,0.00,VWS V14.00,2013-06-26 09:50:00,
2013-06-26 04:55:00,77.9,68.6,29.73,South,180,8.0,12.0,73,0.00,,---,0.00,VWS V14.00,2013-06-26 09:55:00,
2013-06-26 05:00:00,78.0,68.7,29.74,South,180,9.0,14.0,73,0.00,,---,0.00,VWS V14.00,2013-06-26 10:00:00,
2013-06-26 05:05:00,78.1,68.3,29.74,South,180,9.0,13.0,72,0.00,,---,0.00,VWS V14.00,2013-06-26 10:05:00,
2013-06-26 05:10:00,78.1,68.3,29.74,South,180,8.0,13.0,72,0.00,,---,0.00,VWS V14.00,2013-06-26 10:10:00,
2013-06-26 05:15:00,78.1,68.3,29.74,South,180,9.0,16.0,72,0.00,,---,0.00,VWS V14.00,2013-06-26 10:15:00,
2013-06-26 05:20:00,78.2,68.4,29.74,South,180,11.0,16.0,72,0.00,,---,0.00,VWS V14.00,2013-06-26 10:20:00,
2013-06-26 05:25:00,78.3,68.1,29.74,South,180,9.0,17.0,71,0.00,,---,0.00,VWS V14.00,2013-06-26 10:25:00,
2013-06-26 05:30:00,78.4,68.2,29.74,South,180,8.0,15.0,71,0.00,,---,0.00,VWS V14.00,2013-06-26 10:30:00,
2013-06-26 05:35:00,78.4,68.2,29.74,South,180,10.0,15.0,71,0.00,,---,0.00,VWS V14.00,2013-06-26 10:35:00,
2013-06-26 05:40:00,78.3,68.1,29.75,South,180,10.0,14.0,71,0.00,,---,0.00,VWS V14.00,2013-06-26 10:40:00,
2013-06-26 05:45:00,78.4,67.8,29.75,South,180,9.0,14.0,70,0.00,,---,0.00,VWS V14.00,2013-06-26 10:45:00,
2013-06-26 05:50:00,78.4,67.8,29.75,South,180,8.0,13.0,70,0.00,,---,0.00,VWS V14.00,2013-06-26 10:50:00,
2013-06-26 06:00:00,78.4,67.8,29.76,South,180,8.0,13.0,70,0.00,,---,0.00,VWS V14.00,2013-06-26 11:00:00,
2013-06-26 06:05:00,78.4,67.8,29.76,South,180,8.0,12.0,70,0.00,,---,0.00,VWS V14.00,2013-06-26 11:05:00,
2013-06-26 06:15:00,78.4,67.4,29.77,South,180,8.0,14.0,69,0.00,,---,0.00,VWS V14.00,2013-06-26 11:15:00,
2013-06-26 06:20:00,78.5,67.5,29.77,South,180,9.0,15.0,69,0.00,,---,0.00,VWS V14.00,2013-06-26 11:20:00,
2013-06-26 06:25:00,78.6,67.6,29.77,South,180,9.0,13.0,69,0.00,,---,0.00,VWS V14.00,2013-06-26 11:25:00,
2013-06-26 06:30:00,78.6,67.6,29.77,South,180,7.0,11.0,69,0.00,,---,0.00,VWS V14.00,2013-06-26 11:30:00,
2013-06-26 06:35:00,78.5,67.5,29.77,South,180,9.0,14.0,69,0.00,,---,0.00,VWS V14.00,2013-06-26 11:35:00,
2013-06-26 06:40:00,78.5,67.5,29.77,South,180,10.0,16.0,69,0.00,,---,0.00,VWS V14.00,2013-06-26 11:40:00,
2013-06-26 06:45:00,78.5,67.5,29.77,South,180,9.0,14.0,69,0.00,,---,0.00,VWS V14.00,2013-06-26 11:45:00,
2013-06-26 06:50:00,78.4,67.4,29.77,South,180,10.0,16.0,69,0.00,,---,0.00,VWS V14.00,2013-06-26 11:50:00,
2013-06-26 06:55:00,78.4,67.8,29.77,South,180,10.0,14.0,70,0.00,,---,0.00,VWS V14.00,2013-06-26 11:55:00,
2013-06-26 07:00:00,78.4,67.8,29.77,South,180,10.0,15.0,70,0.00,,---,0.00,VWS V14.00,2013-06-26 12:00:00,
2013-06-26 07:05:00,78.4,67.8,29.77,South,180,11.0,16.0,70,0.00,,---,0.00,VWS V14.00,2013-06-26 12:05:00,
2013-06-26 07:15:00,78.4,67.8,29.78,South,180,12.0,17.0,70,0.00,,---,0.00,VWS V14.00,2013-06-26 12:15:00,
2013-06-26 07:30:00,78.7,68.1,29.78,South,180,11.0,16.0,70,0.00,,---,0.00,VWS V14.00,2013-06-26 12:30:00,
2013-06-26 07:35:00,78.7,68.1,29.79,South,180,9.0,13.0,70,0.00,,---,0.00,VWS V14.00,2013-06-26 12:35:00,
2013-06-26 07:40:00,78.8,68.2,29.79,South,180,10.0,15.0,70,0.00,,---,0.00,VWS V14.00,2013-06-26 12:40:00,
2013-06-26 07:45:00,79.0,68.4,29.79,South,180,11.0,23.0,70,0.00,,---,0.00,VWS V14.00,2013-06-26 12:45:00,
2013-06-26 07:50:00,79.3,68.7,29.79,South,180,12.0,23.0,70,0.00,,---,0.00,VWS V14.00,2013-06-26 12:50:00,
2013-06-26 07:55:00,79.6,68.5,29.79,South,180,13.0,18.0,69,0.00,,---,0.00,VWS V14.00,2013-06-26 12:55:00,
2013-06-26 08:00:00,79.9,68.8,29.79,South,180,12.0,20.0,69,0.00,,---,0.00,VWS V14.00,2013-06-26 13:00:00,
2013-06-26 08:05:00,80.1,69.0,29.79,South,180,14.0,24.0,69,0.00,,---,0.00,VWS V14.00,2013-06-26 13:05:00,
2013-06-26 08:20:00,80.7,69.2,29.79,SSW,202,14.0,22.0,68,0.00,,---,0.00,VWS V14.00,2013-06-26 13:20:00,
2013-06-26 08:25:00,80.9,69.4,29.79,SSW,202,14.0,23.0,68,0.00,,---,0.00,VWS V14.00,2013-06-26 13:25:00,
2013-06-26 08:30:00,81.1,69.6,29.79,SSW,202,13.0,21.0,68,0.00,,---,0.00,VWS V14.00,2013-06-26 13:30:00,
2013-06-26 08:35:00,81.2,69.6,29.79,SSW,202,13.0,19.0,68,0.00,,---,0.00,VWS V14.00,2013-06-26 13:35:00,
2013-06-26 08:40:00,81.4,69.8,29.79,South,180,13.0,20.0,68,0.00,,---,0.00,VWS V14.00,2013-06-26 13:40:00,
2013-06-26 08:45:00,81.6,69.6,29.79,SSW,202,14.0,23.0,67,0.00,,---,0.00,VWS V14.00,2013-06-26 13:45:00,
2013-06-26 08:50:00,81.8,70.2,29.79,South,180,14.0,21.0,68,0.00,,---,0.00,VWS V14.00,2013-06-26 13:50:00,
2013-06-26 08:55:00,81.9,69.9,29.80,SSW,202,15.0,24.0,67,0.00,,---,0.00,VWS V14.00,2013-06-26 13:55:00,
2013-06-26 09:00:00,82.1,70.1,29.80,South,180,14.0,20.0,67,0.00,,---,0.00,VWS V14.00,2013-06-26 14:00:00,
2013-06-26 09:05:00,82.2,70.2,29.79,SSW,202,16.0,26.0,67,0.00,,---,0.00,VWS V14.00,2013-06-26 14:05:00,
2013-06-26 09:10:00,82.3,70.3,29.80,SSW,202,15.0,22.0,67,0.00,,---,0.00,VWS V14.00,2013-06-26 14:10:00,
2013-06-26 09:15:00,82.5,70.4,29.80,SSW,202,15.0,23.0,67,0.00,,---,0.00,VWS V14.00,2013-06-26 14:15:00,
2013-06-26 09:20:00,82.7,70.6,29.80,SSW,202,13.0,18.0,67,0.00,,---,0.00,VWS V14.00,2013-06-26 14:20:00,
2013-06-26 09:25:00,82.9,70.8,29.80,South,180,14.0,22.0,67,0.00,,---,0.00,VWS V14.00,2013-06-26 14:25:00,
2013-06-26 09:30:00,83.2,70.7,29.80,SSW,202,14.0,24.0,66,0.00,,---,0.00,VWS V14.00,2013-06-26 14:30:00,
2013-06-26 09:35:00,83.5,70.9,29.80,SSW,202,12.0,19.0,66,0.00,,---,0.00,VWS V14.00,2013-06-26 14:35:00,
2013-06-26 09:40:00,83.7,71.1,29.80,SSW,202,12.0,19.0,66,0.00,,---,0.00,VWS V14.00,2013-06-26 14:40:00,
2013-06-26 09:45:00,83.9,70.9,29.80,SSW,202,15.0,24.0,65,0.00,,---,0.00,VWS V14.00,2013-06-26 14:45:00,
2013-06-26 09:50:00,84.0,71.4,29.80,SSW,202,12.0,19.0,66,0.00,,---,0.00,VWS V14.00,2013-06-26 14:50:00,
2013-06-26 09:55:00,84.3,71.3,29.80,SSW,202,13.0,21.0,65,0.00,,---,0.00,VWS V14.00,2013-06-26 14:55:00,
2013-06-26 10:00:00,84.5,71.4,29.80,SSW,202,15.0,25.0,65,0.00,,---,0.00,VWS V14.00,2013-06-26 15:00:00,
2013-06-26 10:10:00,84.9,71.4,29.80,SSW,202,13.0,20.0,64,0.00,,---,0.00,VWS V14.00,2013-06-26 15:10:00,
2013-06-26 10:15:00,85.1,72.0,29.80,SSW,202,14.0,24.0,65,0.00,,---,0.00,VWS V14.00,2013-06-26 15:15:00,
2013-06-26 10:20:00,85.3,72.2,29.80,South,180,14.0,23.0,65,0.00,,---,0.00,VWS V14.00,2013-06-26 15:20:00,
2013-06-26 10:25:00,85.5,71.9,29.80,SSW,202,15.0,26.0,64,0.00,,---,0.00,VWS V14.00,2013-06-26 15:25:00,
2013-06-26 10:30:00,85.4,71.8,29.80,SSW,202,16.0,24.0,64,0.00,,---,0.00,VWS V14.00,2013-06-26 15:30:00,
2013-06-26 10:35:00,85.2,72.1,29.80,SSW,202,14.0,21.0,65,0.00,,---,0.00,VWS V14.00,2013-06-26 15:35:00,
2013-06-26 10:40:00,85.3,72.2,29.80,SSW,202,14.0,22.0,65,0.00,,---,0.00,VWS V14.00,2013-06-26 15:40:00,
2013-06-26 10:45:00,85.6,72.0,29.80,SSW,202,15.0,23.0,64,0.00,,---,0.00,VWS V14.00,2013-06-26 15:45:00,
2013-06-26 10:50:00,85.8,72.7,29.80,SSW,202,12.0,20.0,65,0.00,,---,0.00,VWS V14.00,2013-06-26 15:50:00,
2013-06-26 10:55:00,86.1,73.0,29.81,SSW,202,12.0,22.0,65,0.00,,---,0.00,VWS V14.00,2013-06-26 15:55:00,
2013-06-26 11:00:00,86.4,72.3,29.81,SSW,202,13.0,20.0,63,0.00,,---,0.00,VWS V14.00,2013-06-26 16:00:00,
2013-06-26 11:05:00,86.6,73.4,29.81,SSW,202,11.0,21.0,65,0.00,,---,0.00,VWS V14.00,2013-06-26 16:05:00,
2013-06-26 11:10:00,87.0,72.9,29.81,SSW,202,13.0,21.0,63,0.00,,---,0.00,VWS V14.00,2013-06-26 16:10:00,
2013-06-26 11:15:00,87.2,72.6,29.81,SSW,202,15.0,22.0,62,0.00,,---,0.00,VWS V14.00,2013-06-26 16:15:00,
2013-06-26 11:20:00,87.1,73.0,29.81,SSW,202,13.0,20.0,63,0.00,,---,0.00,VWS V14.00,2013-06-26 16:20:00,
2013-06-26 11:25:00,87.1,72.5,29.81,SSW,202,14.0,20.0,62,0.00,,---,0.00,VWS V14.00,2013-06-26 16:25:00,
2013-06-26 11:30:00,87.1,72.5,29.81,SSW,202,13.0,20.0,62,0.00,,---,0.00,VWS V14.00,2013-06-26 16:30:00,
2013-06-26 11:50:00,88.3,73.6,29.81,South,180,15.0,22.0,62,0.00,,---,0.00,VWS V14.00,2013-06-26 16:50:00,
2013-06-26 11:55:00,88.6,73.9,29.81,SSW,202,15.0,21.0,62,0.00,,---,0.00,VWS V14.00,2013-06-26 16:55:00,
2013-06-26 12:00:00,88.6,73.9,29.81,SSW,202,13.0,21.0,62,0.00,,---,0.00,VWS V14.00,2013-06-26 17:00:00,
2013-06-26 12:05:00,88.6,73.4,29.81,SSW,202,14.0,20.0,61,0.00,,---,0.00,VWS V14.00,2013-06-26 17:05:00,
2013-06-26 12:10:00,88.8,74.6,29.81,South,180,11.0,18.0,63,0.00,,---,0.00,VWS V14.00,2013-06-26 17:10:00,
2013-06-26 12:15:00,89.3,75.1,29.81,SSW,202,11.0,17.0,63,0.00,,---,0.00,VWS V14.00,2013-06-26 17:15:00,
2013-06-26 12:25:00,89.7,75.0,29.81,SSW,202,11.0,21.0,62,0.00,,---,0.00,VWS V14.00,2013-06-26 17:25:00,
2013-06-26 12:30:00,89.8,75.1,29.81,South,180,13.0,20.0,62,0.00,,---,0.00,VWS V14.00,2013-06-26 17:30:00,
2013-06-26 12:35:00,89.9,74.7,29.81,South,180,14.0,19.0,61,0.00,,---,0.00,VWS V14.00,2013-06-26 17:35:00,
2013-06-26 12:45:00,90.1,74.8,29.81,South,180,12.0,21.0,61,0.00,,---,0.00,VWS V14.00,2013-06-26 17:45:00,
2013-06-26 12:50:00,90.2,75.4,29.81,SSW,202,13.0,19.0,62,0.00,,---,0.00,VWS V14.00,2013-06-26 17:50:00,
2013-06-26 12:55:00,90.5,74.7,29.81,South,180,12.0,19.0,60,0.00,,---,0.00,VWS V14.00,2013-06-26 17:55:00,
2013-06-26 13:00:00,90.6,75.3,29.81,South,180,11.0,18.0,61,0.00,,---,0.00,VWS V14.00,2013-06-26 18:00:00,
2013-06-26 13:05:00,90.8,75.5,29.81,SSW,202,12.0,19.0,61,0.00,,---,0.00,VWS V14.00,2013-06-26 18:05:00,
2013-06-26 13:10:00,90.9,75.6,29.81,South,180,12.0,18.0,61,0.00,,---,0.00,VWS V14.00,2013-06-26 18:10:00,
2013-06-26 13:15:00,91.1,76.3,29.80,SSW,202,11.0,19.0,62,0.00,,---,0.00,VWS V14.00,2013-06-26 18:15:00,
2013-06-26 13:20:00,91.4,76.1,29.80,SSW,202,13.0,22.0,61,0.00,,---,0.00,VWS V14.00,2013-06-26 18:20:00,
2013-06-26 13:30:00,91.6,76.2,29.80,South,180,11.0,16.0,61,0.00,,---,0.00,VWS V14.00,2013-06-26 18:30:00,
2013-06-26 13:35:00,91.8,75.9,29.80,South,180,11.0,18.0,60,0.00,,---,0.00,VWS V14.00,2013-06-26 18:35:00,
2013-06-26 13:40:00,91.9,76.0,29.80,South,180,12.0,21.0,60,0.00,,---,0.00,VWS V14.00,2013-06-26 18:40:00,
2013-06-26 13:45:00,92.0,76.1,29.79,South,180,13.0,19.0,60,0.00,,---,0.00,VWS V14.00,2013-06-26 18:45:00,
2013-06-26 13:50:00,92.2,76.3,29.80,SSW,202,11.0,18.0,60,0.00,,---,0.00,VWS V14.00,2013-06-26 18:50:00,
2013-06-26 13:55:00,92.2,74.8,29.80,SSW,202,12.0,17.0,57,0.00,,---,0.00,VWS V14.00,2013-06-26 18:55:00,
2013-06-26 14:00:00,92.3,76.9,29.80,SSW,202,7.0,12.0,61,0.00,,---,0.00,VWS V14.00,2013-06-26 19:00:00,
2013-06-26 14:05:00,92.6,76.7,29.80,South,180,12.0,17.0,60,0.00,,---,0.00,VWS V14.00,2013-06-26 19:05:00,
2013-06-26 14:10:00,92.8,76.9,29.80,South,180,10.0,17.0,60,0.00,,---,0.00,VWS V14.00,2013-06-26 19:10:00,
2013-06-26 14:15:00,93.1,76.7,29.80,South,180,9.0,15.0,59,0.00,,---,0.00,VWS V14.00,2013-06-26 19:15:00,
2013-06-26 14:30:00,93.5,76.5,29.80,South,180,9.0,17.0,58,0.00,,---,0.00,VWS V14.00,2013-06-26 19:30:00,
2013-06-26 14:35:00,93.7,76.2,29.80,SW,225,9.0,14.0,57,0.00,,---,0.00,VWS V14.00,2013-06-26 19:35:00,
2013-06-26 14:40:00,93.5,76.0,29.80,SSW,202,9.0,14.0,57,0.00,,---,0.00,VWS V14.00,2013-06-26 19:40:00,
2013-06-26 14:50:00,93.4,76.9,29.80,South,180,9.0,16.0,59,0.00,,---,0.00,VWS V14.00,2013-06-26 19:50:00,
2013-06-26 14:55:00,93.6,76.6,29.80,SSW,202,9.0,15.0,58,0.00,,---,0.00,VWS V14.00,2013-06-26 19:55:00,
2013-06-26 15:05:00,94.0,77.0,29.80,South,180,10.0,15.0,58,0.00,,---,0.00,VWS V14.00,2013-06-26 20:05:00,
2013-06-26 15:10:00,94.0,77.0,29.79,SSE,158,7.0,12.0,58,0.00,,---,0.00,VWS V14.00,2013-06-26 20:10:00,
2013-06-26 15:15:00,94.1,76.6,29.79,SSW,202,10.0,16.0,57,0.00,,---,0.00,VWS V14.00,2013-06-26 20:15:00,
2013-06-26 15:20:00,94.0,77.0,29.79,South,180,10.0,16.0,58,0.00,,---,0.00,VWS V14.00,2013-06-26 20:20:00,
2013-06-26 15:25:00,94.0,77.5,29.79,SSE,158,8.0,13.0,59,0.00,,---,0.00,VWS V14.00,2013-06-26 20:25:00,
2013-06-26 15:30:00,94.1,77.1,29.79,South,180,8.0,14.0,58,0.00,,---,0.00,VWS V14.00,2013-06-26 20:30:00,
2013-06-26 15:35:00,94.3,77.3,29.79,SSW,202,8.0,14.0,58,0.00,,---,0.00,VWS V14.00,2013-06-26 20:35:00,
2013-06-26 15:40:00,94.4,76.8,29.79,SSW,202,8.0,12.0,57,0.00,,---,0.00,VWS V14.00,2013-06-26 20:40:00,
2013-06-26 15:45:00,94.5,77.4,29.78,SSW,202,9.0,14.0,58,0.00,,---,0.00,VWS V14.00,2013-06-26 20:45:00,
2013-06-26 15:50:00,94.5,76.9,29.78,South,180,9.0,14.0,57,0.00,,---,0.00,VWS V14.00,2013-06-26 20:50:00,
2013-06-26 15:55:00,94.4,77.3,29.78,South,180,6.0,14.0,58,0.00,,---,0.00,VWS V14.00,2013-06-26 20:55:00,
2013-06-26 16:00:00,94.5,76.9,29.78,South,180,9.0,17.0,57,0.00,,---,0.00,VWS V14.00,2013-06-26 21:00:00,
2013-06-26 16:05:00,94.4,76.8,29.78,SSE,158,11.0,17.0,57,0.00,,---,0.00,VWS V14.00,2013-06-26 21:05:00,
2013-06-26 16:10:00,94.3,77.3,29.78,SSE,158,7.0,14.0,58,0.00,,---,0.00,VWS V14.00,2013-06-26 21:10:00,
2013-06-26 16:15:00,94.4,76.8,29.78,South,180,9.0,17.0,57,0.00,,---,0.00,VWS V14.00,2013-06-26 21:15:00,
2013-06-26 16:20:00,94.4,77.9,29.78,SSW,202,8.0,14.0,59,0.00,,---,0.00,VWS V14.00,2013-06-26 21:20:00,
2013-06-26 16:25:00,94.5,76.9,29.78,South,180,9.0,15.0,57,0.00,,---,0.00,VWS V14.00,2013-06-26 21:25:00,
2013-06-26 16:30:00,94.4,76.8,29.78,South,180,9.0,18.0,57,0.00,,---,0.00,VWS V14.00,2013-06-26 21:30:00,
2013-06-26 16:35:00,94.4,76.8,29.78,South,180,8.0,15.0,57,0.00,,---,0.00,VWS V14.00,2013-06-26 21:35:00,
2013-06-26 16:40:00,94.4,76.8,29.78,South,180,8.0,14.0,57,0.00,,---,0.00,VWS V14.00,2013-06-26 21:40:00,
2013-06-26 16:45:00,94.4,76.8,29.78,SSW,202,8.0,12.0,57,0.00,,---,0.00,VWS V14.00,2013-06-26 21:45:00,
2013-06-26 16:50:00,94.4,76.8,29.78,SSW,202,8.0,13.0,57,0.00,,---,0.00,VWS V14.00,2013-06-26 21:50:00,
2013-06-26 16:55:00,94.3,76.7,29.78,SSW,202,9.0,13.0,57,0.00,,---,0.00,VWS V14.00,2013-06-26 21:55:00,
2013-06-26 17:00:00,94.2,76.6,29.77,SSW,202,9.0,14.0,57,0.00,,---,0.00,VWS V14.00,2013-06-26 22:00:00,
2013-06-26 17:05:00,94.2,77.7,29.78,South,180,7.0,13.0,59,0.00,,---,0.00,VWS V14.00,2013-06-26 22:05:00,
2013-06-26 17:10:00,94.3,76.7,29.77,South,180,7.0,13.0,57,0.00,,---,0.00,VWS V14.00,2013-06-26 22:10:00,
2013-06-26 17:15:00,94.3,76.7,29.77,SSW,202,9.0,13.0,57,0.00,,---,0.00,VWS V14.00,2013-06-26 22:15:00,
2013-06-26 17:20:00,94.2,76.6,29.77,South,180,7.0,15.0,57,0.00,,---,0.00,VWS V14.00,2013-06-26 22:20:00,
2013-06-26 17:25:00,94.2,76.6,29.78,South,180,7.0,13.0,57,0.00,,---,0.00,VWS V14.00,2013-06-26 22:25:00,
2013-06-26 17:30:00,94.2,77.2,29.78,SSE,158,7.0,12.0,58,0.00,,---,0.00,VWS V14.00,2013-06-26 22:30:00,
2013-06-26 17:35:00,94.2,76.6,29.78,South,180,9.0,15.0,57,0.00,,---,0.00,VWS V14.00,2013-06-26 22:35:00,
2013-06-26 17:40:00,94.0,77.0,29.78,South,180,7.0,12.0,58,0.00,,---,0.00,VWS V14.00,2013-06-26 22:40:00,
2013-06-26 17:45:00,94.0,77.0,29.78,South,180,8.0,14.0,58,0.00,,---,0.00,VWS V14.00,2013-06-26 22:45:00,
2013-06-26 17:50:00,93.9,76.9,29.78,South,180,7.0,13.0,58,0.00,,---,0.00,VWS V14.00,2013-06-26 22:50:00,
2013-06-26 18:00:00,93.8,76.3,29.78,South,180,7.0,12.0,57,0.00,,---,0.00,VWS V14.00,2013-06-26 23:00:00,
2013-06-26 18:05:00,93.7,76.7,29.77,SSW,202,7.0,15.0,58,0.00,,---,0.00,VWS V14.00,2013-06-26 23:05:00,
2013-06-26 18:10:00,93.7,77.2,29.77,SSW,202,7.0,13.0,59,0.00,,---,0.00,VWS V14.00,2013-06-26 23:10:00,
2013-06-26 18:15:00,93.6,76.6,29.77,South,180,9.0,14.0,58,0.00,,---,0.00,VWS V14.00,2013-06-26 23:15:00,
2013-06-26 18:20:00,93.4,75.9,29.78,South,180,9.0,14.0,57,0.00,,---,0.00,VWS V14.00,2013-06-26 23:20:00,
2013-06-26 18:30:00,92.9,76.5,29.78,South,180,6.0,12.0,59,0.00,,---,0.00,VWS V14.00,2013-06-26 23:30:00,
2013-06-26 18:35:00,92.9,75.9,29.78,SSW,202,6.0,12.0,58,0.00,,---,0.00,VWS V14.00,2013-06-26 23:35:00,
2013-06-26 18:40:00,92.8,75.9,29.78,SSW,202,7.0,13.0,58,0.00,,---,0.00,VWS V14.00,2013-06-26 23:40:00,
2013-06-26 18:45:00,92.7,76.8,29.78,SSW,202,6.0,11.0,60,0.00,,---,0.00,VWS V14.00,2013-06-26 23:45:00,
2013-06-26 18:50:00,92.6,76.2,29.78,SSW,202,6.0,12.0,59,0.00,,---,0.00,VWS V14.00,2013-06-26 23:50:00,
2013-06-26 18:55:00,92.5,76.6,29.78,SSW,202,6.0,11.0,60,0.00,,---,0.00,VWS V14.00,2013-06-26 23:55:00,
2013-06-26 19:00:00,92.4,77.0,29.78,SSW,202,5.0,11.0,61,0.00,,---,0.00,VWS V14.00,2013-06-27 00:00:00,
2013-06-26 19:05:00,92.4,77.0,29.78,SSW,202,4.0,10.0,61,0.00,,---,0.00,VWS V14.00,2013-06-27 00:05:00,
2013-06-26 19:10:00,92.4,76.5,29.78,SSW,202,6.0,10.0,60,0.00,,---,0.00,VWS V14.00,2013-06-27 00:10:00,
2013-06-26 19:15:00,92.2,76.8,29.78,SSW,202,5.0,10.0,61,0.00,,---,0.00,VWS V14.00,2013-06-27 00:15:00,
2013-06-26 19:20:00,92.1,77.2,29.78,SSW,202,3.0,6.0,62,0.00,,---,0.00,VWS V14.00,2013-06-27 00:20:00,
2013-06-26 19:25:00,92.0,77.6,29.78,SSW,202,2.0,4.0,63,0.00,,---,0.00,VWS V14.00,2013-06-27 00:25:00,
2013-06-26 19:30:00,91.9,78.0,29.78,SSW,202,2.0,5.0,64,0.00,,---,0.00,VWS V14.00,2013-06-27 00:30:00,
2013-06-26 19:40:00,91.4,77.5,29.78,South,180,4.0,6.0,64,0.00,,---,0.00,VWS V14.00,2013-06-27 00:40:00,
2013-06-26 19:45:00,91.1,77.2,29.78,South,180,3.0,6.0,64,0.00,,---,0.00,VWS V14.00,2013-06-27 00:45:00,
2013-06-26 19:50:00,90.8,76.9,29.79,South,180,4.0,9.0,64,0.00,,---,0.00,VWS V14.00,2013-06-27 00:50:00,
2013-06-26 20:00:00,90.2,76.8,29.79,South,180,4.0,6.0,65,0.00,,---,0.00,VWS V14.00,2013-06-27 01:00:00,
2013-06-26 20:05:00,89.9,77.0,29.79,South,180,3.0,7.0,66,0.00,,---,0.00,VWS V14.00,2013-06-27 01:05:00,
2013-06-26 20:10:00,89.3,76.9,29.79,South,180,3.0,6.0,67,0.00,,---,0.00,VWS V14.00,2013-06-27 01:10:00,
2013-06-26 20:15:00,89.3,76.9,29.79,South,180,3.0,6.0,67,0.00,,---,0.00,VWS V14.00,2013-06-27 01:15:00,
2013-06-26 20:20:00,89.1,77.2,29.79,South,180,1.0,4.0,68,0.00,,---,0.00,VWS V14.00,2013-06-27 01:20:00,
2013-06-26 20:25:00,88.8,76.9,29.79,South,180,0.0,0.0,68,0.00,,---,0.00,VWS V14.00,2013-06-27 01:25:00,
2013-06-26 20:30:00,88.5,77.0,29.80,South,180,0.0,0.0,69,0.00,,---,0.00,VWS V14.00,2013-06-27 01:30:00,
2013-06-26 20:35:00,88.3,77.3,29.80,South,180,0.0,0.0,70,0.00,,---,0.00,VWS V14.00,2013-06-27 01:35:00,
2013-06-26 20:40:00,88.0,77.4,29.80,South,180,0.0,3.0,71,0.00,,---,0.00,VWS V14.00,2013-06-27 01:40:00,
2013-06-26 20:45:00,87.7,77.1,29.80,South,180,2.0,4.0,71,0.00,,---,0.00,VWS V14.00,2013-06-27 01:45:00,
2013-06-26 20:50:00,87.3,77.2,29.80,South,180,2.0,4.0,72,0.00,,---,0.00,VWS V14.00,2013-06-27 01:50:00,
2013-06-26 20:55:00,87.0,77.3,29.80,South,180,3.0,6.0,73,0.00,,---,0.00,VWS V14.00,2013-06-27 01:55:00,
2013-06-26 21:00:00,86.5,77.2,29.79,South,180,4.0,7.0,74,0.00,,---,0.00,VWS V14.00,2013-06-27 02:00:00,
2013-06-26 21:05:00,86.1,76.8,29.79,South,180,4.0,6.0,74,0.00,,---,0.00,VWS V14.00,2013-06-27 02:05:00,
2013-06-26 21:10:00,85.8,77.0,29.79,South,180,4.0,7.0,75,0.00,,---,0.00,VWS V14.00,2013-06-27 02:10:00,
2013-06-26 21:15:00,85.4,77.0,29.79,South,180,4.0,6.0,76,0.00,,---,0.00,VWS V14.00,2013-06-27 02:15:00,
2013-06-26 21:20:00,85.2,77.2,29.79,South,180,4.0,7.0,77,0.00,,---,0.00,VWS V14.00,2013-06-27 02:20:00,
2013-06-26 21:25:00,84.9,76.9,29.79,South,180,4.0,7.0,77,0.00,,---,0.00,VWS V14.00,2013-06-27 02:25:00,
2013-06-26 21:30:00,84.7,76.7,29.80,South,180,3.0,5.0,77,0.00,,---,0.00,VWS V14.00,2013-06-27 02:30:00,
2013-06-26 21:35:00,84.5,76.5,29.80,South,180,3.0,6.0,77,0.00,,---,0.00,VWS V14.00,2013-06-27 02:35:00,
2013-06-26 21:40:00,84.3,76.3,29.80,South,180,3.0,6.0,77,0.00,,---,0.00,VWS V14.00,2013-06-27 02:40:00,
2013-06-26 21:45:00,84.1,76.1,29.81,South,180,3.0,7.0,77,0.00,,---,0.00,VWS V14.00,2013-06-27 02:45:00,
2013-06-26 21:50:00,84.0,76.0,29.81,South,180,3.0,5.0,77,0.00,,---,0.00,VWS V14.00,2013-06-27 02:50:00,
2013-06-26 21:55:00,83.9,75.9,29.81,South,180,3.0,6.0,77,0.00,,---,0.00,VWS V14.00,2013-06-27 02:55:00,
2013-06-26 22:00:00,83.8,75.8,29.81,South,180,3.0,5.0,77,0.00,,---,0.00,VWS V14.00,2013-06-27 03:00:00,
2013-06-26 22:05:00,83.6,75.6,29.82,South,180,4.0,8.0,77,0.00,,---,0.00,VWS V14.00,2013-06-27 03:05:00,
2013-06-26 22:10:00,83.6,75.6,29.82,South,180,3.0,6.0,77,0.00,,---,0.00,VWS V14.00,2013-06-27 03:10:00,
2013-06-26 22:25:00,83.4,75.4,29.83,South,180,0.0,0.0,77,0.00,,---,0.00,VWS V14.00,2013-06-27 03:25:00,
2013-06-26 22:30:00,83.3,75.3,29.83,South,180,0.0,0.0,77,0.00,,---,0.00,VWS V14.00,2013-06-27 03:30:00,
2013-06-26 22:35:00,83.3,75.3,29.83,South,180,0.0,0.0,77,0.00,,---,0.00,VWS V14.00,2013-06-27 03:35:00,
2013-06-26 22:40:00,83.2,75.6,29.83,South,180,0.0,0.0,78,0.00,,---,0.00,VWS V14.00,2013-06-27 03:40:00,
2013-06-26 22:50:00,83.0,75.4,29.83,South,180,0.0,0.0,78,0.00,,---,0.00,VWS V14.00,2013-06-27 03:50:00,
2013-06-26 22:55:00,82.9,75.3,29.83,South,180,0.0,1.0,78,0.00,,---,0.00,VWS V14.00,2013-06-27 03:55:00,
2013-06-26 23:00:00,82.7,75.2,29.83,South,180,0.0,3.0,78,0.00,,---,0.00,VWS V14.00,2013-06-27 04:00:00,
2013-06-26 23:05:00,82.5,75.3,29.83,South,180,0.0,1.0,79,0.00,,---,0.00,VWS V14.00,2013-06-27 04:05:00,
2013-06-26 23:10:00,82.4,75.2,29.83,South,180,0.0,0.0,79,0.00,,---,0.00,VWS V14.00,2013-06-27 04:10:00,
2013-06-26 23:15:00,82.2,75.0,29.83,South,180,2.0,6.0,79,0.00,,---,0.00,VWS V14.00,2013-06-27 04:15:00,
2013-06-26 23:20:00,82.0,75.2,29.83,South,180,2.0,4.0,80,0.00,,---,0.00,VWS V14.00,2013-06-27 04:20:00,
2013-06-26 23:30:00,81.8,75.0,29.83,South,180,0.0,0.0,80,0.00,,---,0.00,VWS V14.00,2013-06-27 04:30:00,
2013-06-26 23:35:00,81.7,74.9,29.83,South,180,0.0,0.0,80,0.00,,---,0.00,VWS V14.00,2013-06-27 04:35:00,
2013-06-26 23:40:00,81.6,74.8,29.83,South,180,1.0,4.0,80,0.00,,---,0.00,VWS V14.00,2013-06-27 04:40:00,
2013-06-26 23:55:00,81.3,74.9,29.83,South,180,2.0,5.0,81,0.00,,---,0.00,VWS V14.00,2013-06-27 04:55:00,